[[{"header":{"parameterUnit":"m.s-1","parameterCategory":1,"la1":30.2991,"la2":30.254,"lo1":-89.0895,"lo2":-89.0444,"dy":0.0017,"dx":0.0017,"nx":28,"ny":28,"refTime":"2025-09-16T03:00:00:Z","depth":0,"parameterNumber":2,"parameterNumberName":"U-component_of_WINDS"},"data":[0,0,0,0,0,0,0,0,0,0,0,0,0,0,0,0,0,0,0,0,0,0,0,0,0,0,0,0,0,0,0,0,0,0,0,0,0,0,0,0,0,0,0,0,0,0,0,0,0,0,0,0,0,0,0,0,0,0,-0.8117,-0.8116,0,-0.8069,-0.8068,-0.8067,-0.8024,-0.8023,-0.8023,-0.8022,-0.7972,-0.7971,-0.797,0,0,0,0,0,0,0,0,0,0,0,0,0,-0.817,-0.8169,-0.8117,-0.8116,-0.8115,-0.8069,-0.8068,-0.8067,-0.8024,-0.8023,-0.8022,-0.8022,-0.7972,-0.7971,-0.797,0,0,0,0,0,0,0,0,0,0,0,0,0,-0.8137,-0.8169,-0.8117,-0.8088,-0.8085,-0.8069,-0.8068,-0.8067,-0.8024,-0.8023,-0.8022,-0.8022,-0.7972,-0.7971,-0.797,-0.7978,0,0,-0.7966,-0.7965,0,0,0,0,0,0,0,0,-0.8139,-0.8135,-0.8093,-0.809,-0.8087,-0.8051,-0.8068,-0.8037,-0.8024,-0.8047,-0.8022,-0.8021,-0.7999,-0.7995,-0.7988,-0.7975,-0.7973,-0.7966,-0.7965,-0.7965,-0.7964,0,0,0,0,0,0,0,-0.8141,-0.8137,-0.8098,-0.8092,-0.8088,-0.8077,-0.8072,-0.8062,-0.8028,-0.8045,-0.8042,-0.8037,-0.7997,-0.7989,-0.7986,-0.7972,-0.7966,-0.7965,-0.7964,-0.7963,-0.7964,-0.7965,0,0,0,0,0,0,-0.8148,-0.8139,-0.8099,-0.8096,-0.8111,-0.8077,-0.8071,-0.8063,-0.8028,-0.8022,-0.8037,-0.8035,-0.7992,-0.7988,-0.7985,-0.7992,-0.7965,-0.7963,-0.7963,-0.7963,-0.7964,-0.7965,0,0,0,0,0,0,-0.8149,-0.8145,-0.8101,-0.8117,-0.811,-0.8077,-0.8069,-0.8063,-0.8055,-0.8022,-0.8016,-0.8036,-0.7991,-0.7986,-0.798,-0.7989,-0.7963,-0.7962,-0.7963,-0.7964,-0.7965,-0.8006,0,0,0,0,0,0,-0.8151,-0.8145,-0.8148,-0.8117,-0.811,-0.8098,-0.807,-0.8062,-0.8053,-0.8049,-0.8019,-0.8013,-0.799,-0.7982,-0.7979,-0.7987,-0.7961,-0.7962,-0.7963,-0.7964,-0.8004,-0.8009,-0.8013,0,0,0,0,0,-0.8153,-0.8162,-0.8149,-0.8144,-0.8112,-0.8098,-0.8094,-0.8067,-0.8054,-0.8057,-0.8036,-0.8014,-0.7989,-0.7982,-0.7978,-0.7986,-0.7961,-0.7963,-0.7964,-0.8002,-0.8008,-0.8013,0,0,0,0,0,0,-0.8194,-0.8157,-0.8142,-0.8141,-0.8123,-0.8091,-0.8093,-0.8074,-0.806,-0.8057,-0.8024,-0.8017,-0.8015,-0.7999,-0.7992,-0.7992,-0.7972,-0.7973,-0.8002,-0.8007,-0.8012,-0.8015,-0.796,0,0,0,0,0,-0.8204,-0.8195,-0.8163,-0.8165,-0.8157,-0.8127,-0.812,-0.8101,-0.8081,-0.8073,-0.8051,-0.8032,-0.802,-0.8013,-0.7999,-0.8001,-0.7994,-0.8005,-0.8009,-0.8013,-0.8015,-0.8015,-0.8019,-0.7971,-0.7971,-0.7971,0,0,-0.8222,-0.8201,-0.8197,-0.8173,-0.8157,-0.8149,-0.8121,-0.8113,-0.8107,-0.8072,-0.8064,-0.8048,-0.8025,-0.8023,-0.8021,-0.801,-0.8026,-0.8015,-0.8019,-0.8018,-0.8017,-0.8022,-0.8026,-0.7972,-0.7972,-0.7972,0,0,-0.8252,-0.8235,-0.8235,-0.822,-0.8196,-0.8176,-0.8176,-0.8146,-0.8134,-0.8127,-0.81,-0.8092,-0.8071,-0.8056,-0.8046,-0.807,-0.805,-0.8067,-0.809,-0.8091,-0.8095,-0.8098,-0.8107,-0.8111,-0.8068,-0.8068,-0.8068,0,-0.8278,-0.8265,-0.8237,-0.8232,-0.8222,-0.819,-0.8189,-0.8176,-0.8149,-0.8143,-0.8131,-0.8105,-0.8087,-0.8081,-0.8087,-0.808,-0.8079,-0.807,-0.8096,-0.8099,-0.8102,-0.811,-0.8114,-0.8071,-0.807,-0.807,-0.807,0,-0.8299,-0.829,-0.8293,-0.8269,-0.8259,-0.8256,-0.8228,-0.8221,-0.8203,-0.8184,-0.8177,-0.8154,-0.8136,-0.8133,-0.8116,-0.8125,-0.8119,-0.8103,-0.8082,-0.8109,-0.8117,-0.812,-0.8074,-0.8073,-0.8072,-0.8072,0,0,-0.8353,-0.8314,-0.8315,-0.8304,-0.8275,-0.8268,-0.8264,-0.8247,-0.8242,-0.8225,-0.822,-0.8204,-0.8189,-0.8177,-0.8157,-0.8157,-0.8179,-0.814,-0.8139,-0.8149,-0.8188,-0.8202,-0.8206,-0.8165,-0.8166,-0.8166,-0.8191,0,-0.8379,-0.837,-0.8345,-0.8343,-0.8336,-0.8305,-0.8301,-0.8283,-0.8266,-0.8256,-0.8236,-0.8226,-0.8206,-0.8198,-0.8197,-0.8177,-0.8186,-0.8174,-0.8161,-0.8161,-0.8169,-0.821,-0.8223,-0.8248,-0.8193,-0.8194,-0.8194,0,-0.8408,-0.8393,-0.8391,-0.8363,-0.8359,-0.8356,-0.8339,-0.833,-0.8309,-0.8296,-0.8283,-0.8261,-0.8255,-0.8236,-0.8227,-0.822,-0.8213,-0.8202,-0.8202,-0.82,-0.818,-0.8209,-0.8255,-0.8259,-0.8198,-0.8198,-0.8198,0,-0.8448,-0.8428,-0.8424,-0.8415,-0.8383,-0.8382,-0.8368,-0.8346,-0.8338,-0.8322,-0.8316,-0.83,-0.8291,-0.8279,-0.8254,-0.8242,-0.8248,-0.8226,-0.8237,-0.8238,-0.824,-0.824,-0.8285,-0.8235,-0.8235,-0.8235,-0.8235,0,-0.848,-0.848,-0.8442,-0.844,-0.8439,-0.841,-0.841,-0.8393,-0.8374,-0.8368,-0.834,-0.8335,-0.8301,-0.8292,-0.8272,-0.8268,-0.8264,-0.8254,-0.8248,-0.8257,-0.8258,-0.8252,-0.825,-0.8236,-0.8235,-0.8235,-0.8235,0,-0.8525,-0.85,-0.8494,-0.8464,-0.8456,-0.8457,-0.8431,-0.8428,-0.8409,-0.8402,-0.8398,-0.8368,-0.8356,-0.8329,-0.8309,-0.8296,-0.8297,-0.8287,-0.8304,-0.8301,-0.8314,-0.8313,-0.8357,-0.8361,-0.8308,-0.8308,-0.8309,0,-0.8547,-0.8547,-0.8517,-0.8511,-0.8499,-0.849,-0.8481,-0.8452,-0.8444,-0.842,-0.842,-0.8406,-0.8393,-0.8375,-0.8351,-0.8336,-0.8326,-0.8343,-0.8324,-0.8332,-0.8327,-0.8328,-0.8328,-0.8347,-0.8348,-0.8348,-0.8349,0,-0.8589,-0.8577,-0.8566,-0.855,-0.8541,-0.8527,-0.8511,-0.8508,-0.8475,-0.8468,-0.8455,-0.8446,-0.8426,-0.8413,-0.8394,-0.838,-0.8359,-0.8355,-0.8357,-0.8365,-0.8375,-0.8371,-0.8316,-0.8354,-0.8353,-0.8353,-0.8353,-0.8353,-0.8624,-0.8622,-0.8601,-0.859,-0.8575,-0.8562,-0.8557,-0.8538,-0.8527,-0.8509,-0.8492,-0.8482,-0.8461,-0.8434,-0.8421,-0.8412,-0.8402,-0.8404,-0.8405,-0.8406,-0.841,-0.8377,-0.8409,-0.8409,-0.8409,-0.8408,-0.8408,0,-0.8665,-0.865,-0.864,-0.8619,-0.861,-0.8592,-0.8574,-0.8568,-0.8559,-0.8541,-0.8529,-0.8515,-0.8502,-0.8478,-0.8462,-0.846,-0.845,-0.8457,-0.8457,-0.8454,-0.842,-0.842,-0.8465,-0.8465,-0.8465,-0.8465,-0.8465,-0.8465,-0.8685,-0.8682,-0.8667,-0.8656,-0.8641,-0.863,-0.8622,-0.8609,-0.8595,-0.8581,-0.857,-0.8554,-0.8534,-0.8517,-0.8504,-0.8497,-0.8493,-0.8503,-0.8493,-0.8462,-0.8457,-0.8451,-0.8452,-0.8502,-0.8502,-0.8528,-0.8528,-0.8529]},{"header":{"parameterUnit":"m.s-1","parameterCategory":1,"la1":30.2991,"la2":30.254,"lo1":-89.0895,"lo2":-89.0444,"dy":0.0017,"dx":0.0017,"nx":28,"ny":28,"refTime":"2025-09-16T03:00:00:Z","depth":0,"parameterNumber":3,"parameterNumberName":"V-component_of_WINDS"},"data":[0,0,0,0,0,0,0,0,0,0,0,0,0,0,0,0,0,0,0,0,0,0,0,0,0,0,0,0,0,0,0,0,0,0,0,0,0,0,0,0,0,0,0,0,0,0,0,0,0,0,0,0,0,0,0,0,0,0,1.6892,1.6892,0,1.6852,1.6851,1.6851,1.6856,1.6857,1.6858,1.6858,1.6813,1.6812,1.681,0,0,0,0,0,0,0,0,0,0,0,0,0,1.6971,1.6969,1.6892,1.6892,1.6891,1.6852,1.6851,1.685,1.6856,1.6857,1.6858,1.6859,1.6814,1.6812,1.681,0,0,0,0,0,0,0,0,0,0,0,0,0,1.6934,1.6969,1.6892,1.6889,1.6889,1.6852,1.6851,1.685,1.6856,1.6857,1.6858,1.6859,1.6815,1.6812,1.6809,1.6772,0,0,1.6801,1.68,0,0,0,0,0,0,0,0,1.6936,1.6931,1.689,1.689,1.6889,1.686,1.6862,1.6824,1.6856,1.6868,1.6858,1.6859,1.6828,1.6824,1.6814,1.677,1.6768,1.6801,1.6799,1.6798,1.6797,0,0,0,0,0,0,0,1.6938,1.6933,1.6876,1.689,1.6889,1.6889,1.6885,1.6855,1.6843,1.6867,1.6868,1.6863,1.6828,1.6817,1.6813,1.6767,1.6801,1.6798,1.6797,1.6795,1.6686,1.6685,0,0,0,0,0,0,1.6942,1.6935,1.6877,1.6875,1.6915,1.6886,1.6882,1.6868,1.6843,1.684,1.6862,1.6863,1.6821,1.6816,1.6811,1.6763,1.6798,1.6795,1.6794,1.6688,1.6686,1.6685,0,0,0,0,0,0,1.6944,1.6937,1.6879,1.6905,1.6898,1.6884,1.6869,1.6867,1.6856,1.6839,1.6837,1.6853,1.6821,1.6815,1.6781,1.6762,1.6794,1.6791,1.6689,1.6687,1.6685,1.6668,0,0,0,0,0,0,1.6946,1.6938,1.6924,1.6905,1.6896,1.6851,1.6867,1.6865,1.6852,1.6853,1.683,1.6828,1.6822,1.6785,1.6778,1.6759,1.6789,1.6691,1.6688,1.6686,1.667,1.6666,1.6662,0,0,0,0,0,1.6949,1.6921,1.6924,1.6917,1.6879,1.685,1.6844,1.6839,1.685,1.6836,1.6824,1.6828,1.6766,1.6782,1.6774,1.6753,1.6692,1.6689,1.6686,1.6672,1.6667,1.6662,0,0,0,0,0,0,1.6939,1.6919,1.6921,1.6887,1.687,1.6851,1.6832,1.6834,1.6813,1.6815,1.6809,1.6804,1.6768,1.6758,1.6776,1.6714,1.673,1.6725,1.6722,1.6717,1.6713,1.6715,1.6787,0,0,0,0,0,1.6933,1.6911,1.6894,1.6865,1.6857,1.6846,1.6833,1.683,1.6812,1.6805,1.6791,1.6772,1.6748,1.6732,1.6709,1.667,1.6663,1.6651,1.6647,1.6644,1.6639,1.6614,1.6608,1.6675,1.6675,1.6675,0,0,1.6919,1.6906,1.6892,1.6863,1.685,1.6825,1.684,1.6815,1.6796,1.6801,1.6767,1.6756,1.6734,1.6696,1.6679,1.6686,1.6619,1.664,1.6638,1.6635,1.6611,1.6604,1.6599,1.6673,1.6674,1.6674,0,0,1.6882,1.6871,1.6844,1.683,1.681,1.6803,1.6796,1.6776,1.6769,1.6736,1.6738,1.6715,1.6675,1.6658,1.6645,1.66,1.6601,1.6592,1.657,1.6546,1.654,1.6536,1.6516,1.651,1.6588,1.6588,1.6588,0,1.6868,1.6833,1.683,1.6804,1.6789,1.6793,1.6764,1.6751,1.6724,1.6713,1.6722,1.6669,1.6655,1.6612,1.6601,1.6591,1.6581,1.6594,1.6542,1.6537,1.6532,1.6514,1.6507,1.6587,1.6587,1.6587,1.6587,0,1.6815,1.679,1.6771,1.6745,1.6729,1.6701,1.6692,1.6676,1.6674,1.6666,1.663,1.6613,1.6585,1.6575,1.6574,1.6531,1.6536,1.6544,1.6559,1.6525,1.6507,1.65,1.6585,1.6586,1.6586,1.6587,0,0,1.6769,1.6741,1.6734,1.6721,1.6698,1.6678,1.665,1.6624,1.6608,1.659,1.6564,1.6529,1.6535,1.6519,1.6516,1.6495,1.6457,1.6505,1.6504,1.6494,1.6404,1.6396,1.6389,1.6459,1.6457,1.6456,1.6405,0,1.6728,1.6679,1.6675,1.663,1.6606,1.6608,1.6584,1.6566,1.6557,1.6533,1.6523,1.6497,1.6509,1.6499,1.6479,1.6466,1.6438,1.647,1.6432,1.643,1.6434,1.638,1.6372,1.6325,1.6399,1.6397,1.6397,0,1.6673,1.6652,1.6605,1.6583,1.6573,1.6551,1.6525,1.6504,1.6483,1.6477,1.6459,1.6458,1.6427,1.6445,1.64,1.6422,1.6406,1.6397,1.6395,1.6389,1.641,1.637,1.631,1.6301,1.6386,1.6387,1.6388,0,1.6641,1.6601,1.6567,1.6556,1.6531,1.6515,1.6503,1.6484,1.6467,1.6444,1.6433,1.6407,1.6391,1.637,1.6361,1.6376,1.6315,1.6334,1.6307,1.6307,1.6292,1.6293,1.6226,1.6287,1.6288,1.6288,1.6288,0,1.6593,1.6564,1.6552,1.6531,1.6497,1.6491,1.6457,1.6446,1.6428,1.6403,1.6405,1.6381,1.6372,1.6346,1.6339,1.6301,1.6295,1.6287,1.6285,1.6286,1.6286,1.6273,1.6275,1.6286,1.6286,1.6287,1.6287,0,1.6551,1.6542,1.6505,1.6484,1.6478,1.6453,1.6434,1.6412,1.6404,1.6372,1.6364,1.6349,1.6319,1.6308,1.6271,1.6266,1.6221,1.6223,1.6228,1.6227,1.62,1.6201,1.612,1.6107,1.618,1.6179,1.6179,0,1.652,1.6497,1.6473,1.6457,1.6445,1.6419,1.6402,1.6395,1.6377,1.635,1.6331,1.6301,1.6276,1.6227,1.6212,1.6183,1.6182,1.6156,1.6178,1.6178,1.6178,1.6178,1.6174,1.6151,1.615,1.6149,1.6149,0,1.6464,1.6461,1.6437,1.6411,1.639,1.6369,1.6349,1.6335,1.6325,1.6304,1.6273,1.6254,1.6216,1.6185,1.6155,1.6141,1.6142,1.6143,1.6134,1.6133,1.6135,1.613,1.6213,1.6144,1.6144,1.6145,1.6145,1.6145,1.6424,1.6403,1.6382,1.6355,1.6339,1.6319,1.6297,1.6285,1.6259,1.6228,1.6226,1.6191,1.6168,1.6128,1.6113,1.6084,1.6091,1.608,1.6077,1.6073,1.607,1.6142,1.6079,1.608,1.608,1.608,1.608,0,1.6366,1.6353,1.6328,1.6299,1.6276,1.6281,1.6258,1.6238,1.6208,1.6188,1.6163,1.6126,1.6095,1.6078,1.6046,1.6027,1.6026,1.6018,1.6018,1.6014,1.6067,1.6076,1.6019,1.6019,1.6019,1.6019,1.6019,1.6019,1.6333,1.6296,1.629,1.6244,1.623,1.6197,1.6183,1.6164,1.6147,1.6105,1.608,1.6069,1.6049,1.6016,1.5987,1.5982,1.5969,1.596,1.5956,1.6005,1.6011,1.6017,1.6025,1.5958,1.5958,1.5905,1.5904,1.5904]}]]